Regional Weather Roundup
Issued by NWS

Home | Current Version | Previous Version | Text Only | Print | Product List | Glossary Off
Versions: 1 2 3 4 5 6 7 8 9 10 11 12 13 14 15 16 17 18 19 20 21 22 23 24 25 26 27 28 29 30 31 32 33 34 35 36 37 38 39 40 41 42 43 44 45 46 47 48 49 50

000
ASUS43 KLSX 011359
RWRMO

WEATHER SUMMARY FOR MISSOURI
NATIONAL WEATHER SERVICE SPRINGFIELD MO
900 AM CDT WED APR 01 2015

NOTE: "FAIR" INDICATES FEW OR NO CLOUDS BELOW 12,000 FEET WITH NO
       SIGNIFICANT WEATHER AND/OR OBSTRUCTIONS TO VISIBILITY.
       CURRENT SKY AND/OR WEATHER CONDITIONS ARE NOT AVAILABLE FOR
       CHILLICOTHE AND FARMINGTON.

MOZ001>031-035>038-043-044-053-054-011500-
...NORTHERN AND WESTERN MISSOURI...

CITY           SKY/WX    TMP DP  RH WIND       PRES   REMARKS
KANSAS CTY INT CLOUDY    60  41  49 SE14      29.87F
KANSAS C DTWN  CLOUDY    62  40  44 SE10      29.89F
LEE`S SUMMIT   PTSUNNY   60  40  47 SE15G21   29.90F
ST JOSEPH      PTSUNNY   60  40  47 S8        29.87F
CHILLICOTHE      N/A     59  38  45 S9        29.93S
KIRKSVILLE     MOSUNNY   62  37  39 S15       29.95S

$$
MOZ066>068-077>081-088>096-101>105-011500-
...SOUTHWEST MISSOURI...

CITY           SKY/WX    TMP DP  RH WIND       PRES   REMARKS
SPRINGFIELD    CLOUDY    60  49  66 SE20      29.94F

$$
MOZ032>034-039>042-045>050-055>058-069>072-011500-
...CENTRAL MISSOURI...

CITY           SKY/WX    TMP DP  RH WIND       PRES   REMARKS
COLUMBIA       PTSUNNY   57  38  48 S12       29.98R
JEFFERSON CITY PTSUNNY   55  38  52 SE7       29.99R
ROLLA          MOSUNNY   59  35  40 SE13      29.99R
SEDALIA        PTSUNNY   61  36  39 SE16      29.96S
OSAGE BEACH    MOSUNNY   61  36  39 SE7       29.99S

$$
MOZ051-052-059>065-011500-
...EAST CENTRAL MISSOURI...

CITY           SKY/WX    TMP DP  RH WIND       PRES   REMARKS
ST LOUIS INTL  PTSUNNY   61  36  39 S10       30.02S
SPIRIT OF STL  PTSUNNY   54  44  69 CALM      30.01S
ST CHARLES     MOSUNNY   56  42  59 E6        30.02S

$$
MOZ072>076-082>087-097>100-106>115-011500-
...SOUTH CENTRAL AND SOUTHEAST MISSOURI...

CITY           SKY/WX    TMP DP  RH WIND       PRES   REMARKS
CAPE GIRARDEAU MOSUNNY   58  42  55 SE5       30.05S
FARMINGTON     PTSUNNY   55  39  54 S8        30.08R
POPLAR BLUFF   PTSUNNY   56  43  61 SE3       30.04R
WEST PLAINS    PTSUNNY   59  39  47 SE12      30.03R

$$


USA.gov is the U.S. government's official web portal to all federal, state and local government web resources and services.